Stations météo

réclame
Mon MeteoGroup
Visby Flygplats, Suède (2590): Température de l'air & dewpoint: 14.11.2018 12:00:00 - 20.11.2018 12:00:00 (CET)Visby Flygplats, Suède (2590): Vitesse du vent & gusts: 14.11.2018 12:00:00 - 20.11.2018 12:00:00 (CET)Visby Flygplats, Suède (2590): Direction du vent: 14.11.2018 12:00:00 - 20.11.2018 12:00:00 (CET)Visby Flygplats, Suède (2590): reduced air pressure: 14.11.2018 12:00:00 - 20.11.2018 12:00:00 (CET)Visby Flygplats, Suède (2590): visibility: 14.11.2018 12:00:00 - 20.11.2018 12:00:00 (CET)Visby Flygplats, Suède (2590): Quantités de précipitations: 14.11.2018 12:00:00 - 20.11.2018 12:00:00 (CET)
Date & Time tt [°C] td [°C] ff [km/h] ff [knt] fx [km/h] fx [knt] dd ppp [hPa] vv [km] rr [mm]
20.11.2018 12:00:00 3,1 2,1 5 3 11 6 - 1032,0 10 0,2
20.11.2018 11:00:00 2,6 2,2 5 3 11 6 NE 1032,3 10 0,0
20.11.2018 10:00:00 2,3 2,0 8 4 11 6 NE 1032,5 10 0,0
20.11.2018 09:00:00 1,8 1,5 5 3 7 4 ENE 1032,9 6 0,0
20.11.2018 08:00:00 1,5 1,2 5 3 7 4 E 1033,0 3,7 0,1
20.11.2018 07:00:00 1,5 1,1 5 3 11 6 ENE 1033,1 7 0,2
20.11.2018 06:00:00 1,9 1,5 9 5 11 6 NE 1033,4 10 0,0
20.11.2018 05:00:00 2,0 1,4 9 5 14 8 NE 1033,6 10 0,0
20.11.2018 04:00:00 2,1 1,1 13 7 11 6 E 1034,0 10 0,0
20.11.2018 03:00:00 2,3 1,6 5 3 7 4 NE 1034,5 10 0,0
20.11.2018 02:00:00 2,1 1,5 8 4 11 6 NE 1035,0 10 0,0
20.11.2018 01:00:00 1,9 1,5 8 4 11 6 NE 1035,2 10 0,0
20.11.2018 00:00:00 1,7 1,3 8 4 11 6 NE 1035,3 10 0,0
19.11.2018 23:00:00 1,6 1,2 5 3 18 10 ENE 1035,5 10 0,0
19.11.2018 22:00:00 1,8 1,4 13 7 18 10 NE 1035,8 10 0,0
19.11.2018 21:00:00 1,7 1,1 13 7 18 10 NE 1035,9 10 0,0
19.11.2018 20:00:00 1,5 1,1 11 6 18 10 NE 1035,6 10 0,0
19.11.2018 19:00:00 1,8 1,1 13 7 22 12 NE 1035,7 10 0,0
19.11.2018 18:00:00 1,8 1,1 15 8 25 14 NE 1035,6 10 0,1
19.11.2018 17:00:00 1,9 1,0 15 8 25 14 NE 1035,7 10 0,0
19.11.2018 16:00:00 2,5 1,6 15 8 22 12 NE 1035,8 10 0,1
19.11.2018 15:00:00 2,7 1,4 16 9 22 12 NE 1035,7 10 0,0
19.11.2018 14:00:00 3,3 1,0 22 12 32 18 ENE 1035,7 10 0,0
19.11.2018 13:00:00 3,8 1,8 24 13 40 21 ENE 1036,0 10 0,0
19.11.2018 12:00:00 3,8 1,8 24 13 36 19 ENE 1036,2 10 0,1
19.11.2018 11:00:00 4,2 1,2 22 12 36 19 E 1036,2 10 0,0
19.11.2018 10:00:00 3,5 0,9 15 8 29 16 ENE 1036,0 10 0,0
19.11.2018 09:00:00 1,8 -0,5 15 8 18 10 NE 1036,1 10 0,0
19.11.2018 08:00:00 1,4 -0,5 15 8 22 12 ENE 1035,8 10 0,0
19.11.2018 07:00:00 1,2 -0,4 13 7 22 12 NE 1035,5 10 0,0
19.11.2018 06:00:00 1,6 -0,2 13 7 18 10 NE 1035,4 10 0,0
19.11.2018 05:00:00 2,1 0,0 15 8 22 12 NE 1035,1 10 0,0
19.11.2018 04:00:00 2,8 0,4 18 10 22 12 ENE 1035,3 10 0,0
19.11.2018 03:00:00 2,7 0,3 16 9 25 14 NE 1035,2 10 0,0
19.11.2018 02:00:00 2,3 0,4 16 9 18 10 ENE 1035,4 10 0,0
19.11.2018 01:00:00 3,0 1,5 15 8 22 12 NE 1035,4 10 0,0
19.11.2018 00:00:00 3,6 1,8 16 9 32 18 NE 1035,4 10 0,0
18.11.2018 23:00:00 4,0 2,0 21 11 36 19 NE 1035,2 10 0,0
18.11.2018 22:00:00 4,6 2,1 18 10 29 16 NE 1035,5 10 0,0
18.11.2018 21:00:00 4,7 1,5 18 10 29 16 NE 1035,3 10 0,0
18.11.2018 20:00:00 4,4 1,8 18 10 32 18 NE 1035,3 10 0,0
18.11.2018 19:00:00 4,8 1,6 22 12 40 21 NE 1035,2 10 0,0
18.11.2018 18:00:00 4,8 1,6 26 14 43 23 NNE 1035,2 10 0,0
18.11.2018 17:00:00 5,3 2,5 28 15 36 19 NNE 1035,2 10 0,1
18.11.2018 16:00:00 5,3 2,6 24 13 36 19 NNE 1035,2 10 0,0
18.11.2018 15:00:00 5,6 2,9 24 13 43 23 NNE 1035,4 10 0,0
18.11.2018 14:00:00 6,2 2,8 26 14 40 21 NNE 1035,2 10 0,0
18.11.2018 13:00:00 6,3 3,3 24 13 40 21 NE 1035,4 10 0,0
18.11.2018 12:00:00 6,3 2,9 28 15 40 21 NNE 1035,1 10 0,0
18.11.2018 11:00:00 5,9 3,2 31 17 47 25 NE 1035,3 10 0,0
18.11.2018 10:00:00 6,5 3,5 31 17 47 25 NE 1034,9 10 0,0
18.11.2018 09:00:00 6,7 4,0 28 15 50 27 NNE 1034,6 10 0,0
18.11.2018 08:00:00 6,8 4,5 29 16 43 23 NNE 1034,4 10 0,0
18.11.2018 07:00:00 6,5 4,3 29 16 43 23 NNE 1034,3 10 0,0
18.11.2018 06:00:00 6,1 4,3 18 10 40 21 NNE 1034,5 10 0,0
18.11.2018 05:00:00 6,4 4,6 26 14 40 21 NNE 1034,3 10 0,0
18.11.2018 04:00:00 6,1 4,7 22 12 36 19 N 1034,0 10 0,0
18.11.2018 03:00:00 6,1 5,1 18 10 29 16 N 1034,4 10 0,0
18.11.2018 02:00:00 6,4 5,4 18 10 29 16 N 1035,0 10 0,0
18.11.2018 01:00:00 6,4 5,4 16 9 25 14 N 1035,5 10 0,0
18.11.2018 00:00:00 6,3 5,3 16 9 25 14 NNW 1035,7 10 0,0
17.11.2018 23:00:00 6,6 5,2 16 9 22 12 NW 1035,9 10 0,0
17.11.2018 22:00:00 6,8 5,1 16 9 25 14 NW 1036,2 10 0,0
17.11.2018 21:00:00 6,8 5,0 15 8 22 12 NW 1036,7 10 0,0
17.11.2018 20:00:00 6,8 5,0 16 9 25 14 NNW 1037,2 10 0,0
17.11.2018 19:00:00 6,8 5,1 16 9 25 14 WNW 1037,3 10 0,0
17.11.2018 18:00:00 6,6 4,8 18 10 29 16 WNW 1037,5 10 0,0
17.11.2018 17:00:00 6,1 4,6 22 12 29 16 W 1038,2 10 0,0
17.11.2018 16:00:00 5,8 4,3 22 12 32 18 W 1039,0 10 0,0
17.11.2018 15:00:00 5,7 4,0 21 11 32 18 W 1039,2 10 0,0
17.11.2018 14:00:00 5,9 3,7 22 12 32 18 W 1038,9 10 0,0
17.11.2018 13:00:00 6,0 4,2 16 9 25 14 W 1039,7 10 0,0
17.11.2018 12:00:00 5,8 4,1 15 8 22 12 W 1040,6 10 0,0
17.11.2018 11:00:00 5,8 4,1 18 10 25 14 W 1041,2 10 0,0
17.11.2018 10:00:00 5,7 3,5 18 10 25 14 W 1041,2 10 0,0
17.11.2018 09:00:00 5,8 3,5 21 11 25 14 W 1040,9 10 0,0
17.11.2018 08:00:00 5,9 3,5 16 9 25 14 WSW 1040,7 10 0,0
17.11.2018 07:00:00 6,0 3,0 18 10 - - W - 10 -
17.11.2018 06:00:00 6,0 3,7 18 10 25 14 WSW 1040,2 10 0,0
17.11.2018 05:00:00 5,0 3,2 16 9 22 12 WSW 1040,7 10 0,0
17.11.2018 04:00:00 5,7 4,2 13 7 22 12 SW 1041,3 10 0,0
17.11.2018 03:00:00 3,8 3,1 11 6 14 8 SSW 1041,6 10 0,0
17.11.2018 02:00:00 3,8 2,5 11 6 22 12 SW 1041,5 10 0,0
17.11.2018 01:00:00 5,5 3,8 16 9 25 14 SSW 1041,4 10 0,0
17.11.2018 00:00:00 6,1 4,7 18 10 25 14 SSW 1041,1 10 0,0
16.11.2018 23:00:00 5,3 4,6 9 5 22 12 SSW 1041,3 10 0,0
16.11.2018 22:00:00 5,8 4,9 18 10 25 14 S 1040,7 10 0,0
16.11.2018 21:00:00 5,8 4,8 15 8 18 10 S 1041,0 10 0,0
16.11.2018 20:00:00 5,9 4,9 16 9 25 14 SSW 1041,0 10 0,0
16.11.2018 19:00:00 6,1 5,4 18 10 25 14 S 1040,0 10 0,0
16.11.2018 18:00:00 6,1 5,5 15 8 22 12 S 1039,5 10 0,0
16.11.2018 17:00:00 5,9 4,5 13 7 18 10 S 1039,4 10 0,0
16.11.2018 16:00:00 6,9 4,6 16 9 22 12 S 1039,5 10 0,0
16.11.2018 15:00:00 7,9 4,7 15 8 25 14 S 1039,6 10 0,0
16.11.2018 14:00:00 9,0 5,6 15 8 25 14 SSW 1039,5 10 0,0
16.11.2018 13:00:00 9,0 5,9 18 10 25 14 SSW 1039,2 10 0,0
16.11.2018 12:00:00 8,6 6,2 16 9 22 12 SSW 1039,2 10 0,0
16.11.2018 11:00:00 8,5 6,5 15 8 22 12 SSW 1039,1 10 0,0
16.11.2018 10:00:00 7,2 6,1 13 7 22 12 SSW 1039,0 10 0,0
16.11.2018 09:00:00 7,1 6,4 16 9 22 12 SW 1038,8 10 0,0
16.11.2018 08:00:00 6,9 6,3 16 9 25 14 SSW 1038,0 9 0,0
16.11.2018 07:00:00 6,8 6,2 21 11 29 16 SSW 1037,1 8 0,0
16.11.2018 06:00:00 7,3 7,0 18 10 25 14 SW 1036,6 8 0,0
16.11.2018 05:00:00 7,1 6,8 21 11 25 14 SSW 1036,2 0,6 0,0
16.11.2018 04:00:00 7,0 6,7 18 10 29 16 SSW 1036,0 1,9 0,0
16.11.2018 03:00:00 7,1 6,8 22 12 29 16 SSW 1035,5 3,9 0,0
16.11.2018 02:00:00 7,0 6,7 21 11 32 18 SSW 1035,4 1,9 0,0
16.11.2018 01:00:00 7,2 6,8 18 10 32 18 SSW 1035,1 2,5 0,0
16.11.2018 00:00:00 7,2 6,8 21 11 32 18 SSW 1034,7 5 0,0
15.11.2018 23:00:00 7,4 7,0 18 10 29 16 SSW 1034,3 6 0,0
15.11.2018 22:00:00 7,7 7,1 22 12 29 16 SSW 1034,0 6 0,0
15.11.2018 21:00:00 7,8 7,2 24 13 32 18 SSW 1033,4 7 0,0
15.11.2018 20:00:00 7,9 7,5 21 11 32 18 SSW 1033,1 7 0,0
15.11.2018 19:00:00 8,0 7,2 24 13 36 19 SSW 1032,7 7 0,0
15.11.2018 18:00:00 8,0 7,2 22 12 29 16 SSW 1032,2 7 0,0
15.11.2018 17:00:00 7,8 7,0 22 12 32 18 SSW 1032,0 8 0,0
15.11.2018 16:00:00 7,8 6,9 21 11 29 16 SSW 1031,9 10 0,0
15.11.2018 15:00:00 7,8 6,7 21 11 29 16 SSW 1031,8 10 0,0
15.11.2018 14:00:00 7,8 7,0 21 11 36 19 SSW 1031,5 10 0,0
15.11.2018 13:00:00 6,8 6,5 21 11 32 18 SSW 1031,3 4,3 0,0
15.11.2018 12:00:00 6,4 6,1 24 13 32 18 SSW 1031,1 6 0,0
15.11.2018 11:00:00 7,9 7,6 18 10 32 18 SSW 1030,5 9 0,0
15.11.2018 10:00:00 7,1 7,0 16 9 22 12 SW 1030,3 1,3 0,0
15.11.2018 09:00:00 6,4 6,3 11 6 18 10 S 1029,8 0,5 0,0
15.11.2018 08:00:00 5,9 5,6 13 7 18 10 S 1029,6 0,4 0,0
15.11.2018 07:00:00 5,8 5,5 11 6 14 8 S 1029,3 0,3 0,0
15.11.2018 06:00:00 5,1 4,8 11 6 14 8 S 1029,0 0,2 0,0
15.11.2018 05:00:00 5,3 5,0 11 6 14 8 S 1028,8 0,2 0,0
15.11.2018 04:00:00 6,0 5,7 11 6 14 8 SSW 1028,5 0,3 0,0
15.11.2018 03:00:00 4,4 4,1 11 6 14 8 SSW 1028,1 1,0 0,0
15.11.2018 02:00:00 5,8 5,4 9 5 11 6 S 1027,9 6 0,0
15.11.2018 01:00:00 6,4 5,8 9 5 11 6 S 1027,6 10 0,0
15.11.2018 00:00:00 6,6 6,0 11 6 11 6 SSW 1027,5 10 0,0
14.11.2018 23:00:00 6,3 5,9 9 5 14 8 SSW 1027,2 10 0,0
14.11.2018 22:00:00 5,8 5,5 11 6 11 6 SSW 1027,0 10 0,0
14.11.2018 21:00:00 5,6 5,2 9 5 11 6 S 1026,7 10 0,0
14.11.2018 20:00:00 6,9 6,5 8 4 11 6 S 1026,3 10 0,0
14.11.2018 19:00:00 6,5 6,2 8 4 7 4 SSW 1026,2 10 0,0
14.11.2018 18:00:00 5,3 5,0 9 5 11 6 SSW 1025,7 7 0,0
14.11.2018 17:00:00 3,9 3,3 0 0 7 4 N 1025,4 10 0,0
14.11.2018 16:00:00 7,0 6,3 8 4 14 8 WNW 1025,0 10 0,0
14.11.2018 15:00:00 7,8 7,0 11 6 18 10 NW 1024,5 10 0,0
14.11.2018 14:00:00 7,9 7,3 9 5 14 8 WNW 1024,0 10 0,0
14.11.2018 13:00:00 8,2 7,4 8 4 14 8 W 1023,2 10 0,0
14.11.2018 12:00:00 8,1 7,3 9 5 14 8 W 1022,9 10 0,0

tt = Température de l'air
td = dewpoint
ff = Vitesse du vent
fx = gusts
dd = Direction du vent
ppp = reduced air pressure
vv = visibility
rr = Quantités de précipitations

stations d'obs. à proximité